Погода в Льговском

Россия / Республика Крым     45°05′48″N   34°57′26″E
темп.,
°C
ветер,
м/с
пор.,
м/с
влажн.,
%
обл.,
%
осадки,
мм/ч
давл.,
гПа
погр.,
м
11 мая, вт
вт1100:00+9зюз376395 0.0 1020282
03:00+7з41171100 0.0 1018331
06:00+8зсз61367100 0.0 1016716
09:00+9зсз81371100 0.1 1016746
12:00+11зсз71068100 0.0 1015785
15:00+9зсз61187100 0.5 1015759
18:00+10зсз3890100 0.4 1014482
21:00+9сз1295100 0.9 101573
12 мая, ср
ср1200:00+9вюв0097100 0.4 101427
03:00+8юв019895 0.8 101371
06:00+8ссв119757 0.3 101470
09:00+11в118061 0.3 1013564
12:00+13ююв226676 0.1 1013866
15:00+15ююв226375 0.2 1012966
18:00+14ююв327020 0.1 1012613
21:00+9ю229669 0.1 101328
13 мая, чт
чт1300:00+9ю229515 0.0 101338
03:00+8ююз11875 0.0 101210
06:00+9всв117690 0.0 101212
09:00+16в245499 0.0 1012472
12:00+20вюв4548100 0.0 1011946
15:00+21юв4539100 0.0 1010963
18:00+19ююв344599 0.0 1010475
21:00+14ю2251100 0.0 101014
14 мая, пт
пт1400:00+13юз33484 0.0 101027
03:00+13зюз11410 0.0 101010
06:00+13сз11460 0.0 101111
09:00+20всв1139100 0.0 1011314
12:00+23вюв2237100 0.1 1011787
15:00+24в32390 0.1 1010958
18:00+22св2251100 0.0 1011402
21:00+16з22680 0.0 101215
15 мая, сб
сб1500:00+15зюз11710 0.0 101211
03:00+13ссз11765 0.0 101212
06:00+14зсз12720 0.0 101419
09:00+20з4651100 0.0 1014856
12:00+22ююз244434 0.0 10151571
15:00+22ююв225186 0.0 1013714
18:00
21:00+15юв0176100 0.0 101611